TimeMDT,TemperatureF,Dew PointF,Humidity,Sea Level PressureIn,VisibilityMPH,Wind Direction,Wind SpeedMPH,Gust SpeedMPH,PrecipitationIn,Events,Conditions,WindDirDegrees,DateUTC
12:53 AM,59.0,57.0,93,29.86,10.0,North,4.6,-,N/A,,Mostly Cloudy,360,2013-07-21 06:53:00
1:32 AM,60.8,57.2,88,30.06,10.0,NE,6.9,-,N/A,Thunderstorm,Overcast,40,2013-07-21 07:32:00
1:53 AM,59.0,57.0,93,29.87,9.0,NE,5.8,-,0.17,Rain-Thunderstorm,Light Thunderstorms and Rain,50,2013-07-21 07:53:00
2:07 AM,60.8,57.2,88,30.07,10.0,ENE,6.9,-,0.00,,Mostly Cloudy,60,2013-07-21 08:07:00
2:53 AM,57.9,55.9,93,29.87,10.0,Calm,Calm,-,0.00,,Scattered Clouds,0,2013-07-21 08:53:00
3:13 AM,59.0,53.6,82,30.05,10.0,East,6.9,-,N/A,Thunderstorm,Partly Cloudy,80,2013-07-21 09:13:00
3:53 AM,59.0,53.1,81,29.86,10.0,SE,6.9,-,0.00,Rain-Thunderstorm,Light Thunderstorms and Rain,140,2013-07-21 09:53:00
4:53 AM,57.0,53.1,87,29.83,10.0,NE,5.8,-,0.01,Rain-Thunderstorm,Light Rain,50,2013-07-21 10:53:00
5:36 AM,55.4,53.6,94,30.02,10.0,Calm,Calm,-,0.00,,Partly Cloudy,0,2013-07-21 11:36:00
5:53 AM,55.9,54.0,93,29.83,4.0,Calm,Calm,-,0.00,Rain,Light Rain,0,2013-07-21 11:53:00
6:48 AM,55.4,53.6,94,30.03,10.0,Variable,4.6,-,0.02,,Mostly Cloudy,0,2013-07-21 12:48:00
6:53 AM,55.9,55.0,97,29.85,7.0,Variable,5.8,-,0.02,,Mostly Cloudy,0,2013-07-21 12:53:00
7:37 AM,57.2,55.4,94,30.05,1.8,Variable,4.6,-,N/A,,Overcast,0,2013-07-21 13:37:00
7:53 AM,55.9,55.9,100,29.88,2.5,South,9.2,-,N/A,,Overcast,190,2013-07-21 13:53:00
8:00 AM,55.4,55.4,100,30.06,6.0,SSW,5.8,-,N/A,,Overcast,210,2013-07-21 14:00:00
8:39 AM,57.2,55.4,94,30.07,10.0,SW,6.9,-,N/A,,Overcast,220,2013-07-21 14:39:00
8:53 AM,60.1,55.9,86,29.89,10.0,SW,9.2,-,N/A,,Overcast,220,2013-07-21 14:53:00
9:10 AM,62.6,55.4,77,30.06,10.0,SW,8.1,-,N/A,,Overcast,230,2013-07-21 15:10:00
9:38 AM,62.6,55.4,77,30.05,10.0,Variable,5.8,18.4,N/A,,Scattered Clouds,0,2013-07-21 15:38:00
9:53 AM,63.0,55.9,78,29.88,10.0,SW,11.5,16.1,N/A,,Scattered Clouds,220,2013-07-21 15:53:00
10:53 AM,66.9,57.0,70,29.86,10.0,SSW,10.4,17.3,N/A,,Partly Cloudy,210,2013-07-21 16:53:00
11:53 AM,70.0,55.9,61,29.84,10.0,SSW,15.0,24.2,N/A,,Clear,210,2013-07-21 17:53:00
12:53 PM,73.0,55.9,55,29.82,10.0,SW,9.2,18.4,N/A,,Clear,230,2013-07-21 18:53:00
1:53 PM,75.9,55.9,50,29.80,10.0,Variable,6.9,16.1,N/A,,Clear,0,2013-07-21 19:53:00
2:53 PM,77.0,55.9,48,29.78,10.0,South,9.2,-,N/A,,Clear,190,2013-07-21 20:53:00
3:53 PM,80.1,55.0,42,29.76,10.0,Variable,5.8,-,N/A,,Clear,0,2013-07-21 21:53:00
4:53 PM,79.0,54.0,42,29.76,10.0,Variable,5.8,-,N/A,,Clear,0,2013-07-21 22:53:00
5:53 PM,80.1,53.1,39,29.75,10.0,Variable,5.8,-,N/A,,Clear,0,2013-07-21 23:53:00
6:53 PM,78.1,55.0,45,29.75,10.0,Variable,4.6,-,N/A,,Clear,0,2013-07-22 00:53:00
7:53 PM,75.9,55.0,48,29.78,10.0,Calm,Calm,-,N/A,,Clear,0,2013-07-22 01:53:00
8:53 PM,69.1,54.0,58,29.81,10.0,West,3.5,-,N/A,,Clear,260,2013-07-22 02:53:00
9:53 PM,68.0,53.1,59,29.82,10.0,NNW,5.8,-,N/A,,Clear,330,2013-07-22 03:53:00
10:53 PM,64.9,53.1,65,29.83,10.0,NNW,4.6,-,N/A,,Clear,340,2013-07-22 04:53:00
11:53 PM,68.0,46.9,47,29.82,10.0,NNE,6.9,-,N/A,,Clear,20,2013-07-22 05:53:00